Погода в Усогорске

Россия / Республика Коми     63°25′43″N   48°39′35″E
темп.,
°C
ветер,
м/с
пор.,
м/с
влажн.,
%
обл.,
%
осадки,
мм/ч
давл.,
гПа
погр.,
м
28 февраля, вс
вс2800:00−18ю249783 0.0 1012126
03:00−18ю249889 0.1 1012133
06:00−18ю249798 0.3 1012180
09:00−16ююз249493 0.5 1013242
12:00−13ююз249196 0.2 1013358
15:00−12ююз239198 0.2 1014398
18:00−15ююз1297100 0.0 101520
21:00−16юз229797 0.1 101625
1 марта, пн
пн100:00−16ююз239890 0.0 101577
03:00−15ююз379895 0.1 1015154
06:00−14ююз4896100 0.1 1012265
09:00−11ююз4994100 0.1 1009330
12:00−8ююз61293100 0.7 1005492
15:00−6ююз61294100 2.1 1001610
18:00−4ююз51195100 1.3 997639
21:00−4ююз41096100 3.0 995437
2 марта, вт
вт200:00−2ююз3797100 1.9 993291
03:00−2зсз3798100 3.0 992306
06:00−5зсз379799 0.3 992227
09:00−5сз369694 0.4 993328
12:00−3зсз359599 0.1 994436
15:00−3зсз359399 0.2 995505
18:00−4зсз3896100 0.3 996385
21:00−5ссз4109499 0.6 998689
3 марта, ср
ср300:00−9сз31093100 0.1 999378
03:00−13зсз389775 0.2 1001179
06:00−12зсз399787 0.0 1001247
09:00−8сз4109193 0.2 1002772
12:00−6сз5990100 0.3 1002863
15:00−6сз4985100 0.5 10031189
18:00−8зсз3994100 0.3 1003440
21:00−10зсз3109596 0.4 1004359
4 марта, чт
чт400:00−11з3997100 0.1 1003269
03:00−14з239898 0.1 100377
06:00−16юз239987 0.0 100170
09:00−12ю379493 0.0 998260
12:00−8ююв51094100 0.3 994467
15:00−7ю51194100 1.1 990746
18:00−6ю51294100 1.0 986709
21:00−5ююв51295100 2.9 983686